Time,TemperatureF,DewpointF,PressureIn,WindDirection,WindDirectionDegrees,WindSpeedMPH,WindSpeedGustMPH,Humidity,HourlyPrecipIn,Conditions,Clouds,dailyrainin,SoftwareType,DateUTC
2013-09-13 00:04:00,79.9,28.0,29.82,North,-999,0.0,5.4,15,0.00,,,-99.99,FreeWX-Wi 1.02,2013-09-13 07:04:00,
2013-09-13 00:09:00,79.5,27.9,29.82,North,-999,0.0,0.0,15,0.00,,,-99.99,FreeWX-Wi 1.02,2013-09-13 07:09:00,
2013-09-13 00:14:00,78.8,27.3,29.82,North,-999,0.0,0.0,15,0.00,,,-99.99,FreeWX-Wi 1.02,2013-09-13 07:14:00,
2013-09-13 00:19:00,78.6,27.1,29.82,North,-999,0.0,2.2,15,0.00,,,-99.99,FreeWX-Wi 1.02,2013-09-13 07:19:00,
2013-09-13 00:24:00,77.7,26.4,29.82,North,-999,0.0,0.0,15,0.00,,,-99.99,FreeWX-Wi 1.02,2013-09-13 07:24:00,
2013-09-13 00:29:00,77.0,25.9,29.82,North,-999,0.0,0.0,15,0.00,,,-99.99,FreeWX-Wi 1.02,2013-09-13 07:29:00,
2013-09-13 00:34:00,76.5,25.3,29.82,North,-999,0.0,0.0,15,0.00,,,-99.99,FreeWX-Wi 1.02,2013-09-13 07:34:00,
2013-09-13 00:39:00,77.0,25.9,29.82,North,-999,0.0,3.6,15,0.00,,,-99.99,FreeWX-Wi 1.02,2013-09-13 07:39:00,
2013-09-13 00:44:00,78.1,26.6,29.82,North,-999,0.0,4.0,15,0.00,,,-99.99,FreeWX-Wi 1.02,2013-09-13 07:44:00,
2013-09-13 00:49:00,78.1,26.6,29.82,North,-999,0.0,0.0,15,0.00,,,-99.99,FreeWX-Wi 1.02,2013-09-13 07:49:00,
2013-09-13 00:54:00,77.0,25.9,29.82,North,-999,0.0,0.0,15,0.00,,,-99.99,FreeWX-Wi 1.02,2013-09-13 07:54:00,
2013-09-13 00:59:00,76.3,25.2,29.82,North,-999,0.0,0.0,15,0.00,,,-99.99,FreeWX-Wi 1.02,2013-09-13 07:59:00,
2013-09-13 01:04:00,76.1,25.2,29.82,North,-999,0.0,0.0,15,0.00,,,-99.99,FreeWX-Wi 1.02,2013-09-13 08:04:00,
2013-09-13 01:09:00,75.9,25.0,29.82,North,-999,0.0,2.7,15,0.00,,,-99.99,FreeWX-Wi 1.02,2013-09-13 08:09:00,
2013-09-13 01:14:00,76.3,25.2,29.82,North,-999,0.0,3.6,15,0.00,,,-99.99,FreeWX-Wi 1.02,2013-09-13 08:14:00,
2013-09-13 01:19:00,75.9,25.0,29.82,North,-999,0.0,0.0,15,0.00,,,-99.99,FreeWX-Wi 1.02,2013-09-13 08:19:00,
2013-09-13 01:24:00,75.6,24.6,29.82,North,-999,0.0,0.0,15,0.00,,,-99.99,FreeWX-Wi 1.02,2013-09-13 08:24:00,
2013-09-13 01:29:00,74.8,25.7,29.82,North,-999,0.0,0.0,16,0.00,,,-99.99,FreeWX-Wi 1.02,2013-09-13 08:29:00,
2013-09-13 01:34:00,74.5,25.3,29.82,North,-999,0.0,0.0,16,0.00,,,-99.99,FreeWX-Wi 1.02,2013-09-13 08:34:00,
2013-09-13 01:39:00,74.3,25.2,29.82,North,-999,0.0,0.0,16,0.00,,,-99.99,FreeWX-Wi 1.02,2013-09-13 08:39:00,
2013-09-13 01:44:00,73.8,24.8,29.82,North,-999,0.0,0.0,16,0.00,,,-99.99,FreeWX-Wi 1.02,2013-09-13 08:44:00,
2013-09-13 01:49:00,73.9,25.0,29.82,North,-999,0.0,3.1,16,0.00,,,-99.99,FreeWX-Wi 1.02,2013-09-13 08:49:00,
2013-09-13 01:54:00,73.9,25.0,29.82,North,-999,0.0,0.0,16,0.00,,,-99.99,FreeWX-Wi 1.02,2013-09-13 08:54:00,
2013-09-13 01:59:00,73.8,24.8,29.82,North,-999,0.0,3.1,16,0.00,,,-99.99,FreeWX-Wi 1.02,2013-09-13 08:59:00,
2013-09-13 02:04:00,73.8,24.8,29.82,North,-999,0.0,3.6,16,0.00,,,-99.99,FreeWX-Wi 1.02,2013-09-13 09:04:00,
2013-09-13 02:09:00,73.8,24.8,29.82,North,-999,0.0,0.0,16,0.00,,,-99.99,FreeWX-Wi 1.02,2013-09-13 09:09:00,
2013-09-13 02:14:00,73.4,24.4,29.82,North,-999,0.0,0.0,16,0.00,,,-99.99,FreeWX-Wi 1.02,2013-09-13 09:14:00,
2013-09-13 02:19:00,73.8,24.8,29.82,North,-999,0.0,2.7,16,0.00,,,-99.99,FreeWX-Wi 1.02,2013-09-13 09:19:00,
2013-09-13 02:24:00,73.6,24.6,29.82,North,-999,0.0,0.0,16,0.00,,,-99.99,FreeWX-Wi 1.02,2013-09-13 09:24:00,
2013-09-13 02:29:00,73.0,24.3,29.82,North,-999,0.0,0.0,16,0.00,,,-99.99,FreeWX-Wi 1.02,2013-09-13 09:29:00,
2013-09-13 02:34:00,72.9,24.1,29.82,North,-999,0.0,3.1,16,0.00,,,-99.99,FreeWX-Wi 1.02,2013-09-13 09:34:00,
2013-09-13 02:39:00,72.9,24.1,29.79,North,-999,0.0,3.1,16,0.00,,,-99.99,FreeWX-Wi 1.02,2013-09-13 09:39:00,
2013-09-13 02:44:00,72.9,24.1,29.79,North,-999,0.0,0.0,16,0.00,,,-99.99,FreeWX-Wi 1.02,2013-09-13 09:44:00,
2013-09-13 02:49:00,72.9,24.1,29.79,North,-999,0.0,0.0,16,0.00,,,-99.99,FreeWX-Wi 1.02,2013-09-13 09:49:00,
2013-09-13 02:54:00,72.7,23.9,29.79,North,-999,0.0,0.0,16,0.00,,,-99.99,FreeWX-Wi 1.02,2013-09-13 09:54:00,
2013-09-13 02:59:00,72.5,23.7,29.79,North,-999,0.0,0.0,16,0.00,,,-99.99,FreeWX-Wi 1.02,2013-09-13 09:59:00,
2013-09-13 03:04:00,72.3,23.5,29.79,North,-999,0.0,0.0,16,0.00,,,-99.99,FreeWX-Wi 1.02,2013-09-13 10:04:00,
2013-09-13 03:09:00,72.0,23.4,29.79,North,-999,0.0,0.0,16,0.00,,,-99.99,FreeWX-Wi 1.02,2013-09-13 10:09:00,
2013-09-13 03:14:00,71.6,23.0,29.79,North,-999,0.0,0.0,16,0.00,,,-99.99,FreeWX-Wi 1.02,2013-09-13 10:14:00,
2013-09-13 03:19:00,71.6,23.0,29.79,North,-999,0.0,0.0,16,0.00,,,-99.99,FreeWX-Wi 1.02,2013-09-13 10:19:00,
2013-09-13 03:24:00,71.2,24.3,29.79,North,-999,0.0,0.0,17,0.00,,,-99.99,FreeWX-Wi 1.02,2013-09-13 10:24:00,
2013-09-13 03:29:00,71.2,24.3,29.79,North,-999,0.0,0.0,17,0.00,,,-99.99,FreeWX-Wi 1.02,2013-09-13 10:29:00,
2013-09-13 03:34:00,71.1,24.1,29.79,North,-999,0.0,2.7,17,0.00,,,-99.99,FreeWX-Wi 1.02,2013-09-13 10:34:00,
2013-09-13 03:39:00,71.1,24.1,29.79,North,-999,0.0,0.0,17,0.00,,,-99.99,FreeWX-Wi 1.02,2013-09-13 10:39:00,
2013-09-13 03:44:00,70.7,23.7,29.79,North,-999,0.0,0.0,17,0.00,,,-99.99,FreeWX-Wi 1.02,2013-09-13 10:44:00,
2013-09-13 03:49:00,70.5,23.5,29.79,North,-999,0.0,2.7,17,0.00,,,-99.99,FreeWX-Wi 1.02,2013-09-13 10:49:00,
2013-09-13 03:54:00,70.3,23.5,29.79,North,-999,0.0,0.0,17,0.00,,,-99.99,FreeWX-Wi 1.02,2013-09-13 10:54:00,
2013-09-13 03:59:00,70.2,23.4,29.79,North,-999,0.0,3.1,17,0.00,,,-99.99,FreeWX-Wi 1.02,2013-09-13 10:59:00,
2013-09-13 04:04:00,69.8,23.0,29.79,North,-999,0.0,2.7,17,0.00,,,-99.99,FreeWX-Wi 1.02,2013-09-13 11:04:00,
2013-09-13 04:09:00,69.8,23.0,29.79,North,-999,0.0,0.0,17,0.00,,,-99.99,FreeWX-Wi 1.02,2013-09-13 11:09:00,
2013-09-13 04:14:00,69.8,23.0,29.79,North,-999,0.0,0.0,17,0.00,,,-99.99,FreeWX-Wi 1.02,2013-09-13 11:14:00,
2013-09-13 04:19:00,69.8,23.0,29.79,North,-999,0.0,0.0,17,0.00,,,-99.99,FreeWX-Wi 1.02,2013-09-13 11:19:00,
2013-09-13 04:24:00,69.8,23.0,29.79,North,-999,0.0,0.0,17,0.00,,,-99.99,FreeWX-Wi 1.02,2013-09-13 11:24:00,
2013-09-13 04:29:00,69.8,23.0,29.79,North,-999,0.0,0.0,17,0.00,,,-99.99,FreeWX-Wi 1.02,2013-09-13 11:29:00,
2013-09-13 04:34:00,69.8,23.0,29.79,North,-999,0.0,0.0,17,0.00,,,-99.99,FreeWX-Wi 1.02,2013-09-13 11:34:00,
2013-09-13 04:39:00,69.8,23.0,29.79,North,-999,0.0,0.0,17,0.00,,,-99.99,FreeWX-Wi 1.02,2013-09-13 11:39:00,
2013-09-13 04:44:00,69.6,22.8,29.79,North,-999,0.0,0.0,17,0.00,,,-99.99,FreeWX-Wi 1.02,2013-09-13 11:44:00,
2013-09-13 04:49:00,69.4,22.8,29.79,North,-999,0.0,0.0,17,0.00,,,-99.99,FreeWX-Wi 1.02,2013-09-13 11:49:00,
2013-09-13 04:54:00,69.6,22.8,29.79,North,-999,0.0,3.1,17,0.00,,,-99.99,FreeWX-Wi 1.02,2013-09-13 11:54:00,
2013-09-13 04:59:00,69.6,22.8,29.79,North,-999,0.0,0.0,17,0.00,,,-99.99,FreeWX-Wi 1.02,2013-09-13 11:59:00,
2013-09-13 05:04:00,69.8,23.0,29.79,North,-999,0.0,0.0,17,0.00,,,-99.99,FreeWX-Wi 1.02,2013-09-13 12:04:00,
2013-09-13 05:09:00,69.8,23.0,29.79,North,-999,0.0,0.0,17,0.00,,,-99.99,FreeWX-Wi 1.02,2013-09-13 12:09:00,
2013-09-13 05:14:00,69.6,22.8,29.79,North,-999,0.0,0.0,17,0.00,,,-99.99,FreeWX-Wi 1.02,2013-09-13 12:14:00,
2013-09-13 05:19:00,69.3,22.6,29.79,North,-999,0.0,0.0,17,0.00,,,-99.99,FreeWX-Wi 1.02,2013-09-13 12:19:00,
2013-09-13 05:24:00,69.1,22.5,29.79,North,-999,0.0,0.0,17,0.00,,,-99.99,FreeWX-Wi 1.02,2013-09-13 12:24:00,
2013-09-13 05:29:00,69.1,22.5,29.79,North,-999,0.0,0.0,17,0.00,,,-99.99,FreeWX-Wi 1.02,2013-09-13 12:29:00,
2013-09-13 05:34:00,69.3,22.6,29.79,North,-999,0.0,2.7,17,0.00,,,-99.99,FreeWX-Wi 1.02,2013-09-13 12:34:00,
2013-09-13 05:39:00,69.4,22.8,29.79,North,-999,0.0,0.0,17,0.00,,,-99.99,FreeWX-Wi 1.02,2013-09-13 12:39:00,
2013-09-13 05:44:00,69.3,22.6,29.79,North,-999,0.0,0.0,17,0.00,,,-99.99,FreeWX-Wi 1.02,2013-09-13 12:44:00,
2013-09-13 05:49:00,69.1,22.5,29.79,North,-999,0.0,0.0,17,0.00,,,-99.99,FreeWX-Wi 1.02,2013-09-13 12:49:00,
2013-09-13 05:54:00,69.1,22.5,29.79,North,-999,0.0,0.0,17,0.00,,,-99.99,FreeWX-Wi 1.02,2013-09-13 12:54:00,
2013-09-13 05:59:00,69.3,22.6,29.79,North,-999,0.0,0.0,17,0.00,,,-99.99,FreeWX-Wi 1.02,2013-09-13 12:59:00,
2013-09-13 06:04:00,69.1,22.5,29.79,North,-999,0.0,0.0,17,0.00,,,-99.99,FreeWX-Wi 1.02,2013-09-13 13:04:00,
2013-09-13 06:09:00,68.9,22.3,29.79,North,-999,0.0,0.0,17,0.00,,,-99.99,FreeWX-Wi 1.02,2013-09-13 13:09:00,
2013-09-13 06:14:00,68.7,22.1,29.79,North,-999,0.0,0.0,17,0.00,,,-99.99,FreeWX-Wi 1.02,2013-09-13 13:14:00,
2013-09-13 06:19:00,68.4,21.9,29.76,North,-999,0.0,0.0,17,0.00,,,-99.99,FreeWX-Wi 1.02,2013-09-13 13:19:00,
2013-09-13 06:24:00,69.1,22.5,29.76,North,-999,0.0,0.0,17,0.00,,,-99.99,FreeWX-Wi 1.02,2013-09-13 13:24:00,
2013-09-13 06:29:00,69.1,22.5,29.76,North,-999,0.0,0.0,17,0.00,,,-99.99,FreeWX-Wi 1.02,2013-09-13 13:29:00,
2013-09-13 06:34:00,68.9,22.3,29.79,North,-999,0.0,0.0,17,0.00,,,-99.99,FreeWX-Wi 1.02,2013-09-13 13:34:00,
2013-09-13 06:39:00,68.9,22.3,29.79,North,-999,0.0,0.0,17,0.00,,,-99.99,FreeWX-Wi 1.02,2013-09-13 13:39:00,
2013-09-13 06:44:00,68.7,22.1,29.79,North,-999,0.0,0.0,17,0.00,,,-99.99,FreeWX-Wi 1.02,2013-09-13 13:44:00,
2013-09-13 06:49:00,68.9,22.3,29.79,North,-999,0.0,0.0,17,0.00,,,-99.99,FreeWX-Wi 1.02,2013-09-13 13:49:00,
2013-09-13 06:54:00,69.1,22.5,29.79,North,-999,0.0,0.0,17,0.00,,,-99.99,FreeWX-Wi 1.02,2013-09-13 13:54:00,
2013-09-13 06:59:00,69.3,22.6,29.79,North,-999,0.0,2.7,17,0.00,,,-99.99,FreeWX-Wi 1.02,2013-09-13 13:59:00,
2013-09-13 07:04:00,69.6,22.8,29.79,North,-999,0.0,2.2,17,0.00,,,-99.99,FreeWX-Wi 1.02,2013-09-13 14:04:00,
2013-09-13 07:09:00,69.8,23.0,29.79,North,-999,0.0,0.0,17,0.00,,,-99.99,FreeWX-Wi 1.02,2013-09-13 14:09:00,
2013-09-13 07:14:00,70.2,23.4,29.79,North,-999,0.0,0.0,17,0.00,,,-99.99,FreeWX-Wi 1.02,2013-09-13 14:14:00,
2013-09-13 07:19:00,70.7,23.7,29.79,North,-999,0.0,0.0,17,0.00,,,-99.99,FreeWX-Wi 1.02,2013-09-13 14:19:00,
2013-09-13 07:24:00,71.1,24.1,29.79,North,-999,0.0,0.0,17,0.00,,,-99.99,FreeWX-Wi 1.02,2013-09-13 14:24:00,
2013-09-13 07:29:00,71.6,23.0,29.79,North,-999,0.0,0.0,16,0.00,,,-99.99,FreeWX-Wi 1.02,2013-09-13 14:29:00,
2013-09-13 07:34:00,72.1,23.5,29.79,North,-999,0.0,0.0,16,0.00,,,-99.99,FreeWX-Wi 1.02,2013-09-13 14:34:00,
2013-09-13 07:39:00,73.0,24.3,29.79,North,-999,0.0,0.0,16,0.00,,,-99.99,FreeWX-Wi 1.02,2013-09-13 14:39:00,
2013-09-13 07:44:00,74.1,25.0,29.79,North,-999,0.0,0.0,16,0.00,,,-99.99,FreeWX-Wi 1.02,2013-09-13 14:44:00,
2013-09-13 07:49:00,75.0,25.7,29.79,North,-999,0.0,2.7,16,0.00,,,-99.99,FreeWX-Wi 1.02,2013-09-13 14:49:00,
2013-09-13 07:54:00,75.9,25.0,29.79,North,-999,0.0,2.2,15,0.00,,,-99.99,FreeWX-Wi 1.02,2013-09-13 14:54:00,
2013-09-13 07:59:00,76.6,25.5,29.79,North,-999,0.0,2.7,15,0.00,,,-99.99,FreeWX-Wi 1.02,2013-09-13 14:59:00,
2013-09-13 08:04:00,77.4,26.1,29.79,North,-999,0.0,0.0,15,0.00,,,-99.99,FreeWX-Wi 1.02,2013-09-13 15:04:00,
2013-09-13 08:09:00,77.9,26.6,29.79,North,-999,0.0,0.0,15,0.00,,,-99.99,FreeWX-Wi 1.02,2013-09-13 15:09:00,
2013-09-13 08:14:00,79.0,27.3,29.79,North,-999,0.0,2.2,15,0.00,,,-99.99,FreeWX-Wi 1.02,2013-09-13 15:14:00,
2013-09-13 08:19:00,79.0,27.3,29.79,North,-999,0.0,0.0,15,0.00,,,-99.99,FreeWX-Wi 1.02,2013-09-13 15:19:00,
2013-09-13 08:24:00,79.7,28.0,29.79,North,-999,0.0,0.0,15,0.00,,,-99.99,FreeWX-Wi 1.02,2013-09-13 15:24:00,
2013-09-13 08:29:00,79.9,28.0,29.79,North,-999,0.0,0.0,15,0.00,,,-99.99,FreeWX-Wi 1.02,2013-09-13 15:29:00,
2013-09-13 08:34:00,80.8,27.1,29.79,North,-999,0.0,0.0,14,0.00,,,-99.99,FreeWX-Wi 1.02,2013-09-13 15:34:00,
2013-09-13 08:39:00,82.4,28.4,29.79,North,-999,0.0,0.0,14,0.00,,,-99.99,FreeWX-Wi 1.02,2013-09-13 15:39:00,
2013-09-13 08:44:00,82.9,28.8,29.79,North,-999,0.0,0.0,14,0.00,,,-99.99,FreeWX-Wi 1.02,2013-09-13 15:44:00,
2013-09-13 08:49:00,83.7,29.5,29.79,North,-999,0.0,0.0,14,0.00,,,-99.99,FreeWX-Wi 1.02,2013-09-13 15:49:00,
2013-09-13 08:54:00,84.6,28.2,29.79,North,-999,0.0,0.0,13,0.00,,,-99.99,FreeWX-Wi 1.02,2013-09-13 15:54:00,
2013-09-13 08:59:00,85.6,29.1,29.79,North,-999,0.0,0.0,13,0.00,,,-99.99,FreeWX-Wi 1.02,2013-09-13 15:59:00,
2013-09-13 09:04:00,86.5,29.8,29.79,North,-999,0.0,0.0,13,0.00,,,-99.99,FreeWX-Wi 1.02,2013-09-13 16:04:00,
2013-09-13 09:09:00,86.7,30.0,29.79,North,-999,0.0,0.0,13,0.00,,,-99.99,FreeWX-Wi 1.02,2013-09-13 16:09:00,
2013-09-13 09:14:00,87.1,30.2,29.79,North,-999,0.0,0.0,13,0.00,,,-99.99,FreeWX-Wi 1.02,2013-09-13 16:14:00,
2013-09-13 09:19:00,88.0,30.9,29.79,North,-999,0.0,0.0,13,0.00,,,-99.99,FreeWX-Wi 1.02,2013-09-13 16:19:00,
2013-09-13 09:24:00,88.7,31.5,29.79,North,-999,0.0,0.0,13,0.00,,,-99.99,FreeWX-Wi 1.02,2013-09-13 16:24:00,
2013-09-13 09:29:00,88.7,31.5,29.79,North,-999,0.0,0.0,13,0.00,,,-99.99,FreeWX-Wi 1.02,2013-09-13 16:29:00,
2013-09-13 09:34:00,89.4,32.0,29.79,North,-999,0.0,2.2,13,0.00,,,-99.99,FreeWX-Wi 1.02,2013-09-13 16:34:00,
2013-09-13 09:39:00,90.3,30.7,29.79,North,-999,0.0,0.0,12,0.00,,,-99.99,FreeWX-Wi 1.02,2013-09-13 16:39:00,
2013-09-13 09:44:00,90.9,31.3,29.79,North,-999,0.0,0.0,12,0.00,,,-99.99,FreeWX-Wi 1.02,2013-09-13 16:44:00,
2013-09-13 09:49:00,91.0,31.3,29.79,North,-999,0.0,3.6,12,0.00,,,-99.99,FreeWX-Wi 1.02,2013-09-13 16:49:00,
2013-09-13 09:54:00,90.5,30.9,29.79,North,-999,0.0,3.1,12,0.00,,,-99.99,FreeWX-Wi 1.02,2013-09-13 16:54:00,
2013-09-13 09:59:00,91.4,31.6,29.79,North,-999,0.0,0.0,12,0.00,,,-99.99,FreeWX-Wi 1.02,2013-09-13 16:59:00,
2013-09-13 10:04:00,91.9,32.0,29.79,North,-999,0.0,3.6,12,0.00,,,-99.99,FreeWX-Wi 1.02,2013-09-13 17:04:00,
2013-09-13 10:09:00,92.3,32.4,29.79,North,-999,0.0,2.2,12,0.00,,,-99.99,FreeWX-Wi 1.02,2013-09-13 17:09:00,
2013-09-13 10:14:00,93.6,31.1,29.79,North,-999,0.0,0.0,11,0.00,,,-99.99,FreeWX-Wi 1.02,2013-09-13 17:14:00,
2013-09-13 10:19:00,94.1,31.5,29.79,North,-999,0.0,3.1,11,0.00,,,-99.99,FreeWX-Wi 1.02,2013-09-13 17:19:00,
2013-09-13 10:24:00,94.5,31.8,29.79,North,-999,0.0,0.0,11,0.00,,,-99.99,FreeWX-Wi 1.02,2013-09-13 17:24:00,
2013-09-13 10:29:00,95.4,32.5,29.79,North,-999,0.0,2.7,11,0.00,,,-99.99,FreeWX-Wi 1.02,2013-09-13 17:29:00,
2013-09-13 10:34:00,95.4,32.5,29.79,North,-999,0.0,4.9,11,0.00,,,-99.99,FreeWX-Wi 1.02,2013-09-13 17:34:00,
2013-09-13 10:39:00,95.0,32.2,29.79,North,-999,0.0,3.1,11,0.00,,,-99.99,FreeWX-Wi 1.02,2013-09-13 17:39:00,
2013-09-13 10:44:00,95.5,38.7,29.79,North,-999,0.0,2.7,14,0.00,,,-99.99,FreeWX-Wi 1.02,2013-09-13 17:44:00,
2013-09-13 10:49:00,96.8,37.8,29.79,North,-999,0.0,2.2,13,0.00,,,-99.99,FreeWX-Wi 1.02,2013-09-13 17:49:00,
2013-09-13 10:54:00,98.2,38.8,29.79,North,-999,0.0,2.7,13,0.00,,,-99.99,FreeWX-Wi 1.02,2013-09-13 17:54:00,
2013-09-13 10:59:00,98.4,39.0,29.79,North,353,1.0,4.5,13,0.00,,,-99.99,FreeWX-Wi 1.02,2013-09-13 17:59:00,
2013-09-13 11:04:00,98.2,38.8,29.79,North,-999,0.0,4.0,13,0.00,,,-99.99,FreeWX-Wi 1.02,2013-09-13 18:04:00,
2013-09-13 11:09:00,99.5,39.9,29.79,North,-999,0.0,3.6,13,0.00,,,-99.99,FreeWX-Wi 1.02,2013-09-13 18:09:00,
2013-09-13 11:14:00,100.0,40.3,29.79,North,-999,0.0,4.0,13,0.00,,,-99.99,FreeWX-Wi 1.02,2013-09-13 18:14:00,
2013-09-13 11:19:00,100.4,38.5,29.76,North,0,1.0,5.4,12,0.00,,,-99.99,FreeWX-Wi 1.02,2013-09-13 18:19:00,
2013-09-13 11:24:00,100.9,39.0,29.76,NNE,14,2.0,5.8,12,0.00,,,-99.99,FreeWX-Wi 1.02,2013-09-13 18:24:00,
2013-09-13 11:29:00,101.5,39.4,29.76,NE,37,2.0,5.4,12,0.00,,,-99.99,FreeWX-Wi 1.02,2013-09-13 18:29:00,
2013-09-13 11:34:00,102.6,40.3,29.76,ENE,69,2.0,4.0,12,0.00,,,-99.99,FreeWX-Wi 1.02,2013-09-13 18:34:00,
2013-09-13 11:39:00,102.4,40.1,29.76,East,94,2.0,4.9,12,0.00,,,-99.99,FreeWX-Wi 1.02,2013-09-13 18:39:00,
2013-09-13 11:44:00,102.4,40.1,29.76,ESE,113,2.0,5.4,12,0.00,,,-99.99,FreeWX-Wi 1.02,2013-09-13 18:44:00,
2013-09-13 11:49:00,102.6,40.3,29.76,SE,127,2.0,6.3,12,0.00,,,-99.99,FreeWX-Wi 1.02,2013-09-13 18:49:00,
2013-09-13 11:54:00,102.9,40.5,29.76,SE,135,2.0,2.7,12,0.00,,,-99.99,FreeWX-Wi 1.02,2013-09-13 18:54:00,
2013-09-13 11:59:00,103.1,40.6,29.76,SSE,148,1.0,2.2,12,0.00,,,-99.99,FreeWX-Wi 1.02,2013-09-13 18:59:00,
2013-09-13 12:04:00,102.6,40.3,29.76,SSE,159,1.0,4.9,12,0.00,,,-99.99,FreeWX-Wi 1.02,2013-09-13 19:04:00,
2013-09-13 12:09:00,103.3,40.8,29.76,SSE,164,2.0,6.3,12,0.00,,,-99.99,FreeWX-Wi 1.02,2013-09-13 19:09:00,
2013-09-13 12:14:00,102.9,40.5,29.76,SSE,164,1.0,3.1,12,0.00,,,-99.99,FreeWX-Wi 1.02,2013-09-13 19:14:00,
2013-09-13 12:19:00,102.2,39.9,29.74,SSE,166,1.0,6.3,12,0.00,,,-99.99,FreeWX-Wi 1.02,2013-09-13 19:19:00,
2013-09-13 12:24:00,102.7,40.3,29.74,South,172,2.0,8.3,12,0.00,,,-99.99,FreeWX-Wi 1.02,2013-09-13 19:24:00,
2013-09-13 12:29:00,103.3,40.8,29.74,South,181,3.0,8.3,12,0.00,,,-99.99,FreeWX-Wi 1.02,2013-09-13 19:29:00,
2013-09-13 12:34:00,104.2,41.4,29.74,SSW,192,3.0,7.2,12,0.00,,,-99.99,FreeWX-Wi 1.02,2013-09-13 19:34:00,
2013-09-13 12:39:00,104.2,41.4,29.74,SSW,206,3.0,8.1,12,0.00,,,-99.99,FreeWX-Wi 1.02,2013-09-13 19:39:00,
2013-09-13 12:44:00,104.7,41.9,29.74,SSW,212,4.0,8.1,12,0.00,,,-99.99,FreeWX-Wi 1.02,2013-09-13 19:44:00,
2013-09-13 12:49:00,105.3,42.3,29.74,SSW,207,4.0,8.3,12,0.00,,,-99.99,FreeWX-Wi 1.02,2013-09-13 19:49:00,
2013-09-13 12:54:00,105.4,42.4,29.74,SSW,206,4.0,8.7,12,0.00,,,-99.99,FreeWX-Wi 1.02,2013-09-13 19:54:00,
2013-09-13 12:59:00,105.4,42.4,29.74,SSW,200,4.0,8.1,12,0.00,,,-99.99,FreeWX-Wi 1.02,2013-09-13 19:59:00,
2013-09-13 13:04:00,105.6,42.6,29.74,South,191,4.0,8.1,12,0.00,,,-99.99,FreeWX-Wi 1.02,2013-09-13 20:04:00,
2013-09-13 13:09:00,106.0,40.6,29.74,South,189,4.0,7.6,11,0.00,,,-99.99,FreeWX-Wi 1.02,2013-09-13 20:09:00,
2013-09-13 13:14:00,106.3,40.8,29.74,SSW,202,5.0,9.6,11,0.00,,,-99.99,FreeWX-Wi 1.02,2013-09-13 20:14:00,
2013-09-13 13:19:00,106.7,41.2,29.74,SSW,203,5.0,8.7,11,0.00,,,-99.99,FreeWX-Wi 1.02,2013-09-13 20:19:00,
2013-09-13 13:24:00,106.2,40.6,29.74,SSW,202,4.0,11.0,11,0.00,,,-99.99,FreeWX-Wi 1.02,2013-09-13 20:24:00,
2013-09-13 13:29:00,106.2,40.6,29.74,SSW,199,4.0,7.6,11,0.00,,,-99.99,FreeWX-Wi 1.02,2013-09-13 20:29:00,
2013-09-13 13:34:00,106.7,41.2,29.74,SSW,192,4.0,6.7,11,0.00,,,-99.99,FreeWX-Wi 1.02,2013-09-13 20:34:00,
2013-09-13 13:39:00,106.7,41.2,29.74,South,191,4.0,7.6,11,0.00,,,-99.99,FreeWX-Wi 1.02,2013-09-13 20:39:00,
2013-09-13 13:44:00,106.3,40.8,29.74,South,181,4.0,8.7,11,0.00,,,-99.99,FreeWX-Wi 1.02,2013-09-13 20:44:00,
2013-09-13 13:49:00,106.7,41.2,29.74,South,177,4.0,8.3,11,0.00,,,-99.99,FreeWX-Wi 1.02,2013-09-13 20:49:00,
2013-09-13 13:54:00,106.3,40.8,29.74,South,172,4.0,8.7,11,0.00,,,-99.99,FreeWX-Wi 1.02,2013-09-13 20:54:00,
2013-09-13 13:59:00,106.7,41.2,29.74,South,169,4.0,10.1,11,0.00,,,-99.99,FreeWX-Wi 1.02,2013-09-13 20:59:00,
2013-09-13 14:04:00,107.2,41.5,29.71,SSE,165,4.0,7.6,11,0.00,,,-99.99,FreeWX-Wi 1.02,2013-09-13 21:04:00,
2013-09-13 14:09:00,107.6,41.7,29.71,SSE,159,4.0,8.3,11,0.00,,,-99.99,FreeWX-Wi 1.02,2013-09-13 21:09:00,
2013-09-13 14:14:00,107.2,41.5,29.71,SSE,156,4.0,6.3,11,0.00,,,-99.99,FreeWX-Wi 1.02,2013-09-13 21:14:00,
2013-09-13 14:19:00,106.3,40.8,29.71,SSE,158,4.0,7.6,11,0.00,,,-99.99,FreeWX-Wi 1.02,2013-09-13 21:19:00,
2013-09-13 14:24:00,106.3,40.8,29.71,SSE,152,5.0,8.7,11,0.00,,,-99.99,FreeWX-Wi 1.02,2013-09-13 21:24:00,
2013-09-13 14:29:00,107.1,41.4,29.71,SSE,151,4.0,8.3,11,0.00,,,-99.99,FreeWX-Wi 1.02,2013-09-13 21:29:00,
2013-09-13 14:34:00,107.6,41.7,29.71,SSE,152,5.0,8.7,11,0.00,,,-99.99,FreeWX-Wi 1.02,2013-09-13 21:34:00,
2013-09-13 14:39:00,107.8,41.9,29.71,SE,138,4.0,4.0,11,0.00,,,-99.99,FreeWX-Wi 1.02,2013-09-13 21:39:00,
2013-09-13 14:44:00,108.1,42.3,29.71,SE,133,4.0,6.3,11,0.00,,,-99.99,FreeWX-Wi 1.02,2013-09-13 21:44:00,
2013-09-13 14:49:00,108.0,42.1,29.71,SE,137,4.0,15.0,11,0.00,,,-99.99,FreeWX-Wi 1.02,2013-09-13 21:49:00,
2013-09-13 14:54:00,108.0,42.1,29.71,SE,140,4.0,8.1,11,0.00,,,-99.99,FreeWX-Wi 1.02,2013-09-13 21:54:00,
2013-09-13 14:59:00,107.4,41.7,29.71,SSE,149,4.0,6.3,11,0.00,,,-99.99,FreeWX-Wi 1.02,2013-09-13 21:59:00,
2013-09-13 15:04:00,107.6,41.7,29.71,SSE,167,4.0,8.7,11,0.00,,,-99.99,FreeWX-Wi 1.02,2013-09-13 22:04:00,
2013-09-13 15:09:00,106.9,41.2,29.71,SSW,195,4.0,8.1,11,0.00,,,-99.99,FreeWX-Wi 1.02,2013-09-13 22:09:00,
2013-09-13 15:14:00,106.7,41.2,29.71,SW,214,4.0,8.7,11,0.00,,,-99.99,FreeWX-Wi 1.02,2013-09-13 22:14:00,
2013-09-13 15:19:00,106.3,40.8,29.71,SW,230,4.0,7.2,11,0.00,,,-99.99,FreeWX-Wi 1.02,2013-09-13 22:19:00,
2013-09-13 15:24:00,106.7,41.2,29.71,WSW,238,4.0,10.5,11,0.00,,,-99.99,FreeWX-Wi 1.02,2013-09-13 22:24:00,
2013-09-13 15:29:00,107.6,41.7,29.71,WSW,249,5.0,10.5,11,0.00,,,-99.99,FreeWX-Wi 1.02,2013-09-13 22:29:00,
2013-09-13 15:34:00,108.1,42.3,29.68,WSW,244,5.0,8.1,11,0.00,,,-99.99,FreeWX-Wi 1.02,2013-09-13 22:34:00,
2013-09-13 15:39:00,108.1,42.3,29.68,WSW,241,4.0,6.3,11,0.00,,,-99.99,FreeWX-Wi 1.02,2013-09-13 22:39:00,
2013-09-13 15:44:00,107.4,41.7,29.68,WSW,239,4.0,6.3,11,0.00,,,-99.99,FreeWX-Wi 1.02,2013-09-13 22:44:00,
2013-09-13 15:49:00,107.1,41.4,29.68,SW,235,4.0,6.3,11,0.00,,,-99.99,FreeWX-Wi 1.02,2013-09-13 22:49:00,
2013-09-13 15:54:00,107.4,41.7,29.68,SW,236,4.0,7.6,11,0.00,,,-99.99,FreeWX-Wi 1.02,2013-09-13 22:54:00,
2013-09-13 15:59:00,106.9,41.2,29.68,WSW,243,3.0,5.8,11,0.00,,,-99.99,FreeWX-Wi 1.02,2013-09-13 22:59:00,
2013-09-13 16:04:00,105.6,42.6,29.68,WSW,256,3.0,5.4,12,0.00,,,-99.99,FreeWX-Wi 1.02,2013-09-13 23:04:00,
2013-09-13 16:09:00,104.5,41.7,29.68,West,260,2.0,4.0,12,0.00,,,-99.99,FreeWX-Wi 1.02,2013-09-13 23:09:00,
2013-09-13 16:14:00,104.9,41.9,29.68,WSW,256,2.0,6.3,12,0.00,,,-99.99,FreeWX-Wi 1.02,2013-09-13 23:14:00,
2013-09-13 16:19:00,105.6,42.6,29.68,WSW,246,2.0,5.8,12,0.00,,,-99.99,FreeWX-Wi 1.02,2013-09-13 23:19:00,
2013-09-13 16:24:00,106.2,40.6,29.68,SW,227,2.0,5.8,11,0.00,,,-99.99,FreeWX-Wi 1.02,2013-09-13 23:24:00,
2013-09-13 16:29:00,105.8,40.5,29.68,SSW,210,2.0,6.3,11,0.00,,,-99.99,FreeWX-Wi 1.02,2013-09-13 23:29:00,
2013-09-13 16:34:00,105.3,42.3,29.68,SSW,202,3.0,8.7,12,0.00,,,-99.99,FreeWX-Wi 1.02,2013-09-13 23:34:00,
2013-09-13 16:39:00,105.6,42.6,29.68,SSW,195,4.0,8.3,12,0.00,,,-99.99,FreeWX-Wi 1.02,2013-09-13 23:39:00,
2013-09-13 16:44:00,105.3,42.3,29.68,SSW,201,4.0,8.3,12,0.00,,,-99.99,FreeWX-Wi 1.02,2013-09-13 23:44:00,
2013-09-13 16:49:00,105.1,42.1,29.68,SSW,206,4.0,8.1,12,0.00,,,-99.99,FreeWX-Wi 1.02,2013-09-13 23:49:00,
2013-09-13 16:54:00,104.4,41.5,29.68,SSW,213,4.0,5.8,12,0.00,,,-99.99,FreeWX-Wi 1.02,2013-09-13 23:54:00,
2013-09-13 16:59:00,104.2,41.4,29.68,SW,220,4.0,6.7,12,0.00,,,-99.99,FreeWX-Wi 1.02,2013-09-13 23:59:00,
2013-09-13 17:04:00,103.5,40.8,29.68,SW,222,4.0,10.5,12,0.00,,,-99.99,FreeWX-Wi 1.02,2013-09-14 00:04:00,
2013-09-13 17:09:00,103.5,40.8,29.68,SW,227,4.0,10.5,12,0.00,,,-99.99,FreeWX-Wi 1.02,2013-09-14 00:09:00,
2013-09-13 17:14:00,103.3,40.8,29.68,WSW,237,4.0,14.5,12,0.00,,,-99.99,FreeWX-Wi 1.02,2013-09-14 00:14:00,
2013-09-13 17:19:00,103.1,40.6,29.68,WSW,250,5.0,10.1,12,0.00,,,-99.99,FreeWX-Wi 1.02,2013-09-14 00:19:00,
2013-09-13 17:24:00,102.7,40.3,29.68,WSW,255,6.0,11.9,12,0.00,,,-99.99,FreeWX-Wi 1.02,2013-09-14 00:24:00,
2013-09-13 17:29:00,102.2,39.9,29.68,WSW,258,6.0,10.5,12,0.00,,,-99.99,FreeWX-Wi 1.02,2013-09-14 00:29:00,
2013-09-13 17:34:00,101.5,39.4,29.68,West,260,6.0,15.0,12,0.00,,,-99.99,FreeWX-Wi 1.02,2013-09-14 00:34:00,
2013-09-13 17:39:00,101.1,39.0,29.68,West,262,7.0,14.5,12,0.00,,,-99.99,FreeWX-Wi 1.02,2013-09-14 00:39:00,
2013-09-13 17:44:00,100.6,38.7,29.68,West,262,7.0,8.7,12,0.00,,,-99.99,FreeWX-Wi 1.02,2013-09-14 00:44:00,
2013-09-13 17:49:00,100.0,40.3,29.68,West,261,7.0,12.8,13,0.00,,,-99.99,FreeWX-Wi 1.02,2013-09-14 00:49:00,
2013-09-13 17:54:00,99.5,39.9,29.68,West,261,7.0,11.4,13,0.00,,,-99.99,FreeWX-Wi 1.02,2013-09-14 00:54:00,
2013-09-13 17:59:00,99.3,39.7,29.68,West,262,7.0,11.0,13,0.00,,,-99.99,FreeWX-Wi 1.02,2013-09-14 00:59:00,
2013-09-13 18:04:00,98.8,39.4,29.68,West,262,7.0,12.8,13,0.00,,,-99.99,FreeWX-Wi 1.02,2013-09-14 01:04:00,
2013-09-13 18:09:00,98.2,38.8,29.68,West,263,6.0,11.9,13,0.00,,,-99.99,FreeWX-Wi 1.02,2013-09-14 01:09:00,
2013-09-13 18:14:00,97.9,38.7,29.68,West,263,6.0,8.1,13,0.00,,,-99.99,FreeWX-Wi 1.02,2013-09-14 01:14:00,
2013-09-13 18:19:00,97.5,38.3,29.68,West,263,6.0,11.0,13,0.00,,,-99.99,FreeWX-Wi 1.02,2013-09-14 01:19:00,
2013-09-13 18:24:00,97.2,38.1,29.68,West,263,6.0,12.3,13,0.00,,,-99.99,FreeWX-Wi 1.02,2013-09-14 01:24:00,
2013-09-13 18:29:00,96.6,39.6,29.68,West,263,6.0,10.1,14,0.00,,,-99.99,FreeWX-Wi 1.02,2013-09-14 01:29:00,
2013-09-13 18:34:00,96.4,39.4,29.68,West,265,6.0,10.5,14,0.00,,,-99.99,FreeWX-Wi 1.02,2013-09-14 01:34:00,
2013-09-13 18:39:00,96.1,39.2,29.68,West,267,5.0,8.3,14,0.00,,,-99.99,FreeWX-Wi 1.02,2013-09-14 01:39:00,
2013-09-13 18:44:00,95.7,38.8,29.68,West,268,5.0,9.6,14,0.00,,,-99.99,FreeWX-Wi 1.02,2013-09-14 01:44:00,
2013-09-13 18:49:00,94.8,38.1,29.68,West,269,5.0,6.3,14,0.00,,,-99.99,FreeWX-Wi 1.02,2013-09-14 01:49:00,
2013-09-13 18:54:00,94.1,31.5,29.68,West,267,4.0,5.8,11,0.00,,,-99.99,FreeWX-Wi 1.02,2013-09-14 01:54:00,
2013-09-13 18:59:00,93.9,31.5,29.68,West,270,4.0,7.2,11,0.00,,,-99.99,FreeWX-Wi 1.02,2013-09-14 01:59:00,
2013-09-13 19:05:00,93.7,31.3,29.68,West,269,4.0,7.6,11,0.00,,,-99.99,FreeWX-Wi 1.02,2013-09-14 02:05:00,
2013-09-13 19:10:00,93.2,30.9,29.68,West,271,3.0,9.6,11,0.00,,,-99.99,FreeWX-Wi 1.02,2013-09-14 02:10:00,
2013-09-13 19:15:00,93.0,32.9,29.68,West,273,3.0,8.7,12,0.00,,,-99.99,FreeWX-Wi 1.02,2013-09-14 02:15:00,
2013-09-13 19:20:00,92.8,32.7,29.68,West,277,3.0,5.8,12,0.00,,,-99.99,FreeWX-Wi 1.02,2013-09-14 02:20:00,
2013-09-13 19:25:00,92.7,32.5,29.68,West,279,3.0,7.2,12,0.00,,,-99.99,FreeWX-Wi 1.02,2013-09-14 02:25:00,
2013-09-13 19:30:00,92.3,32.4,29.68,West,279,3.0,6.3,12,0.00,,,-99.99,FreeWX-Wi 1.02,2013-09-14 02:30:00,
2013-09-13 19:35:00,92.3,32.4,29.68,West,279,3.0,5.8,12,0.00,,,-99.99,FreeWX-Wi 1.02,2013-09-14 02:35:00,
2013-09-13 19:40:00,91.9,32.0,29.68,West,277,3.0,5.8,12,0.00,,,-99.99,FreeWX-Wi 1.02,2013-09-14 02:40:00,
2013-09-13 19:45:00,91.4,31.6,29.68,West,278,3.0,8.1,12,0.00,,,-99.99,FreeWX-Wi 1.02,2013-09-14 02:45:00,
2013-09-13 19:50:00,91.0,31.3,29.68,West,281,3.0,4.5,12,0.00,,,-99.99,FreeWX-Wi 1.02,2013-09-14 02:50:00,
2013-09-13 19:55:00,90.9,31.3,29.68,WNW,292,2.0,4.9,12,0.00,,,-99.99,FreeWX-Wi 1.02,2013-09-14 02:55:00,
2013-09-13 20:00:00,90.7,31.1,29.68,NW,307,2.0,6.7,12,0.00,,,-99.99,FreeWX-Wi 1.02,2013-09-14 03:00:00,
2013-09-13 20:05:00,90.7,31.1,29.71,NW,322,2.0,4.0,12,0.00,,,-99.99,FreeWX-Wi 1.02,2013-09-14 03:05:00,
2013-09-13 20:10:00,90.1,30.7,29.71,NNW,332,1.0,7.6,12,0.00,,,-99.99,FreeWX-Wi 1.02,2013-09-14 03:10:00,
2013-09-13 20:15:00,90.3,30.7,29.71,NNW,343,1.0,4.0,12,0.00,,,-99.99,FreeWX-Wi 1.02,2013-09-14 03:15:00,
2013-09-13 20:20:00,89.8,30.4,29.71,North,351,2.0,4.0,12,0.00,,,-99.99,FreeWX-Wi 1.02,2013-09-14 03:20:00,
2013-09-13 20:25:00,89.6,30.2,29.71,North,353,2.0,5.8,12,0.00,,,-99.99,FreeWX-Wi 1.02,2013-09-14 03:25:00,
2013-09-13 20:30:00,89.8,30.4,29.71,North,356,2.0,6.3,12,0.00,,,-99.99,FreeWX-Wi 1.02,2013-09-14 03:30:00,
2013-09-13 20:35:00,89.2,32.0,29.71,North,355,2.0,4.9,13,0.00,,,-99.99,FreeWX-Wi 1.02,2013-09-14 03:35:00,
2013-09-13 20:40:00,88.9,31.6,29.71,North,359,2.0,4.9,13,0.00,,,-99.99,FreeWX-Wi 1.02,2013-09-14 03:40:00,
2013-09-13 20:45:00,89.1,31.8,29.71,North,359,2.0,5.4,13,0.00,,,-99.99,FreeWX-Wi 1.02,2013-09-14 03:45:00,
2013-09-13 20:50:00,88.5,31.5,29.71,North,359,2.0,3.6,13,0.00,,,-99.99,FreeWX-Wi 1.02,2013-09-14 03:50:00,
2013-09-13 20:55:00,88.5,31.5,29.71,North,357,2.0,5.8,13,0.00,,,-99.99,FreeWX-Wi 1.02,2013-09-14 03:55:00,
2013-09-13 21:00:00,88.2,31.1,29.71,North,355,1.0,4.0,13,0.00,,,-99.99,FreeWX-Wi 1.02,2013-09-14 04:00:00,
2013-09-13 21:05:00,87.4,30.6,29.71,North,356,1.0,2.7,13,0.00,,,-99.99,FreeWX-Wi 1.02,2013-09-14 04:05:00,
2013-09-13 21:10:00,87.3,30.4,29.71,North,355,1.0,4.0,13,0.00,,,-99.99,FreeWX-Wi 1.02,2013-09-14 04:10:00,
2013-09-13 21:15:00,87.4,30.6,29.71,North,350,1.0,10.1,13,0.00,,,-99.99,FreeWX-Wi 1.02,2013-09-14 04:15:00,
2013-09-13 21:20:00,87.1,30.2,29.71,NNW,339,1.0,4.0,13,0.00,,,-99.99,FreeWX-Wi 1.02,2013-09-14 04:20:00,
2013-09-13 21:25:00,86.5,29.8,29.71,NNW,328,1.0,3.1,13,0.00,,,-99.99,FreeWX-Wi 1.02,2013-09-14 04:25:00,
2013-09-13 21:30:00,86.2,29.5,29.71,NW,318,1.0,5.4,13,0.00,,,-99.99,FreeWX-Wi 1.02,2013-09-14 04:30:00,
2013-09-13 21:35:00,86.4,29.7,29.71,NW,311,1.0,3.1,13,0.00,,,-99.99,FreeWX-Wi 1.02,2013-09-14 04:35:00,
2013-09-13 21:40:00,86.2,29.5,29.71,WNW,301,1.0,4.0,13,0.00,,,-99.99,FreeWX-Wi 1.02,2013-09-14 04:40:00,
2013-09-13 21:45:00,86.5,29.8,29.71,WNW,298,1.0,4.0,13,0.00,,,-99.99,FreeWX-Wi 1.02,2013-09-14 04:45:00,
2013-09-13 21:50:00,86.4,29.7,29.71,WNW,303,1.0,2.7,13,0.00,,,-99.99,FreeWX-Wi 1.02,2013-09-14 04:50:00,
2013-09-13 21:55:00,86.7,30.0,29.71,NW,309,1.0,3.6,13,0.00,,,-99.99,FreeWX-Wi 1.02,2013-09-14 04:55:00,
2013-09-13 22:00:00,86.2,29.5,29.71,NW,311,1.0,2.7,13,0.00,,,-99.99,FreeWX-Wi 1.02,2013-09-14 05:00:00,
2013-09-13 22:05:00,85.6,29.1,29.74,NW,314,1.0,0.0,13,0.00,,,-99.99,FreeWX-Wi 1.02,2013-09-14 05:05:00,
2013-09-13 22:10:00,84.6,28.2,29.74,North,-999,0.0,0.0,13,0.00,,,-99.99,FreeWX-Wi 1.02,2013-09-14 05:10:00,
2013-09-13 22:15:00,83.7,29.5,29.74,North,-999,0.0,0.0,14,0.00,,,-99.99,FreeWX-Wi 1.02,2013-09-14 05:15:00,
2013-09-13 22:20:00,83.3,29.1,29.71,North,-999,0.0,0.0,14,0.00,,,-99.99,FreeWX-Wi 1.02,2013-09-14 05:20:00,
2013-09-13 22:25:00,83.1,28.9,29.71,North,-999,0.0,0.0,14,0.00,,,-99.99,FreeWX-Wi 1.02,2013-09-14 05:25:00,
2013-09-13 22:30:00,82.4,28.4,29.71,North,-999,0.0,0.0,14,0.00,,,-99.99,FreeWX-Wi 1.02,2013-09-14 05:30:00,
2013-09-13 22:35:00,82.0,28.0,29.74,North,-999,0.0,0.0,14,0.00,,,-99.99,FreeWX-Wi 1.02,2013-09-14 05:35:00,
2013-09-13 22:40:00,82.0,28.0,29.74,North,-999,0.0,0.0,14,0.00,,,-99.99,FreeWX-Wi 1.02,2013-09-14 05:40:00,
2013-09-13 22:45:00,82.0,28.0,29.74,North,-999,0.0,4.0,14,0.00,,,-99.99,FreeWX-Wi 1.02,2013-09-14 05:45:00,
2013-09-13 22:50:00,82.8,28.8,29.74,North,-999,0.0,3.6,14,0.00,,,-99.99,FreeWX-Wi 1.02,2013-09-14 05:50:00,
2013-09-13 22:55:00,84.9,28.6,29.74,North,-999,0.0,4.0,13,0.00,,,-99.99,FreeWX-Wi 1.02,2013-09-14 05:55:00,
2013-09-13 23:00:00,86.2,29.5,29.74,NNW,335,1.0,5.8,13,0.00,,,-99.99,FreeWX-Wi 1.02,2013-09-14 06:00:00,
2013-09-13 23:05:00,86.0,29.5,29.71,NNW,345,2.0,5.4,13,0.00,,,-99.99,FreeWX-Wi 1.02,2013-09-14 06:05:00,
2013-09-13 23:10:00,84.9,28.6,29.71,North,356,2.0,2.2,13,0.00,,,-99.99,FreeWX-Wi 1.02,2013-09-14 06:10:00,
2013-09-13 23:15:00,83.8,29.5,29.71,North,7,2.0,3.6,14,0.00,,,-99.99,FreeWX-Wi 1.02,2013-09-14 06:15:00,
2013-09-13 23:20:00,84.0,29.7,29.71,NNE,18,2.0,3.6,14,0.00,,,-99.99,FreeWX-Wi 1.02,2013-09-14 06:20:00,
2013-09-13 23:25:00,83.7,29.5,29.71,NNE,24,1.0,2.2,14,0.00,,,-99.99,FreeWX-Wi 1.02,2013-09-14 06:25:00,
2013-09-13 23:30:00,82.9,28.8,29.71,North,-999,0.0,2.2,14,0.00,,,-99.99,FreeWX-Wi 1.02,2013-09-14 06:30:00,
2013-09-13 23:35:00,82.2,28.2,29.71,North,-999,0.0,0.0,14,0.00,,,-99.99,FreeWX-Wi 1.02,2013-09-14 06:35:00,
2013-09-13 23:40:00,81.3,27.5,29.71,North,-999,0.0,0.0,14,0.00,,,-99.99,FreeWX-Wi 1.02,2013-09-14 06:40:00,
2013-09-13 23:45:00,80.1,28.2,29.71,North,-999,0.0,0.0,15,0.00,,,-99.99,FreeWX-Wi 1.02,2013-09-14 06:45:00,
2013-09-13 23:50:00,79.3,27.7,29.71,North,-999,0.0,0.0,15,0.00,,,-99.99,FreeWX-Wi 1.02,2013-09-14 06:50:00,
2013-09-13 23:55:00,79.3,27.7,29.71,North,-999,0.0,2.7,15,0.00,,,-99.99,FreeWX-Wi 1.02,2013-09-14 06:55:00,